Theta_e
321 315 315 325 333 329 328 328 329 332 335 338 339 337 331 333 333 331 332 331 333 334 333 334 333 333 334 335 338 339 339 338 337 335 337 340 337 334 332 329 329 328 332 339 339 338 338 337 337 336 332 327 326 327 326 325 325 324 324 323 323 324 324 324 324 323 321 320 321 322 323 322 316 313 312 312 313 313 314 316 318 319 320 321 323 325 327 326 326 327 327 327 326 326 326 326 327
320 315 315 328 332 326 329 331 335 338 337 336 337 337 334 333 331 331 331 331 335 334 333 333 332 332 331 332 335 336 339 340 337 337 340 338 337 336 333 330 329 328 333 338 338 337 338 337 336 335 330 326 325 326 326 325 326 325 324 324 324 324 325 325 324 324 323 320 319 323 325 322 316 312 313 312 312 313 313 316 318 318 319 321 323 326 326 324 325 327 327 326 325 325 324 323 323
319 315 315 327 330 327 333 334 338 340 336 334 336 337 333 332 332 331 331 332 334 333 333 332 331 332 331 333 336 336 340 342 339 337 337 336 337 335 333 330 329 329 333 337 337 336 337 337 336 333 327 324 324 326 325 325 326 325 325 324 324 324 324 324 323 322 323 321 318 321 326 323 317 312 312 312 313 313 313 315 316 317 318 321 324 325 324 322 324 325 326 325 325 325 324 321 321
319 315 314 324 328 329 335 337 341 340 337 336 335 336 334 332 332 333 333 333 333 333 333 332 332 332 333 336 336 337 341 343 341 336 335 336 335 334 332 330 328 329 332 334 336 335 336 337 335 331 325 322 323 324 324 324 325 325 324 324 324 323 324 323 322 321 321 321 318 319 324 322 316 313 312 312 313 312 313 314 315 316 317 321 323 323 321 320 322 323 323 322 323 323 322 320 319
318 318 319 325 330 331 333 334 337 337 335 337 336 337 337 332 332 336 334 333 333 333 333 332 331 332 333 337 335 336 341 343 342 337 335 336 334 333 333 329 327 328 330 332 334 335 335 336 333 328 323 321 322 323 323 324 325 325 324 323 323 322 322 321 320 320 320 320 316 316 322 322 316 313 312 312 313 312 313 313 315 315 316 320 321 321 319 318 319 321 320 319 320 320 320 319 319
316 319 323 327 329 327 327 328 333 336 332 334 335 335 335 331 331 334 333 332 334 334 333 332 331 332 334 337 338 338 339 340 341 338 335 336 332 331 331 328 327 327 328 330 332 333 334 334 331 325 321 321 321 322 322 323 324 324 323 322 322 321 319 318 318 319 319 317 314 315 321 322 316 313 312 312 312 312 312 313 314 314 316 318 319 318 317 317 318 320 319 318 317 316 317 318 318
315 317 322 327 329 325 328 329 330 335 331 330 333 331 330 329 330 332 330 327 330 333 333 333 330 333 335 337 339 339 339 340 341 335 333 335 332 330 329 327 327 327 327 327 328 331 332 331 328 324 321 320 320 321 322 322 323 323 322 321 320 319 317 317 317 318 318 315 313 314 319 322 317 313 312 312 312 312 312 312 313 314 315 316 316 315 315 316 318 319 318 316 316 317 319 319 320
315 316 320 327 331 326 330 331 326 329 328 326 329 328 326 328 328 328 328 323 327 333 333 332 331 334 336 337 341 340 339 341 340 332 330 333 330 330 327 326 326 326 327 325 325 329 329 328 326 323 321 320 320 320 321 322 322 322 321 320 319 317 316 316 316 317 315 312 312 313 318 322 319 314 312 312 312 312 312 312 313 313 314 316 315 315 315 316 317 318 316 315 317 320 322 321 321
315 316 319 327 331 327 328 330 325 324 324 323 325 326 324 327 325 323 328 326 328 333 333 332 330 335 338 340 342 340 340 342 341 330 328 330 329 329 326 326 324 323 326 324 324 327 327 325 325 322 321 319 319 320 320 321 320 320 319 318 317 316 316 316 316 315 313 311 311 313 317 321 320 316 312 312 312 312 312 312 313 313 313 315 315 315 315 316 317 317 315 315 318 322 322 320 320
315 316 318 324 328 327 327 327 325 323 322 322 323 324 324 325 323 322 325 323 327 333 333 331 333 337 340 343 342 340 342 343 340 331 329 328 327 328 326 326 324 322 324 325 325 325 325 324 323 322 320 319 318 319 319 320 319 319 318 317 316 315 316 316 316 314 312 311 312 313 317 320 320 317 313 312 312 312 312 312 313 312 313 314 314 315 316 316 317 317 315 315 317 321 322 322 321
314 315 316 320 324 325 325 325 324 322 321 321 320 322 323 323 323 322 321 321 328 333 332 333 338 339 340 342 342 341 342 342 339 335 335 330 326 328 326 325 324 322 322 327 327 324 324 323 323 321 320 319 318 318 318 319 318 318 316 316 316 315 316 316 316 314 312 312 312 314 316 319 319 317 314 312 312 312 312 312 313 312 312 312 313 314 315 315 316 316 315 315 316 320 324 325 325
314 315 317 320 321 321 322 322 322 322 321 321 320 320 321 322 322 322 321 322 328 333 331 332 336 339 344 344 341 341 341 341 339 338 340 335 329 328 326 321 322 321 320 327 327 323 323 322 322 322 319 318 318 318 318 318 318 317 316 316 315 314 315 316 316 314 313 312 313 314 315 317 317 316 315 313 312 312 312 313 313 312 312 312 312 313 314 314 315 315 315 315 316 318 323 327 328
313 314 317 319 320 319 320 320 321 322 321 320 320 320 321 320 321 322 321 323 328 333 332 331 332 336 346 345 340 341 342 342 340 339 339 338 334 330 326 321 320 321 322 326 325 322 321 321 322 321 320 318 317 318 317 318 317 316 316 315 314 314 314 316 316 314 313 313 313 314 315 316 316 316 314 313 313 312 313 313 313 312 312 312 312 312 313 313 313 315 315 315 315 316 321 328 329
313 313 316 318 319 319 318 319 320 320 319 319 319 319 320 320 321 321 321 325 330 332 331 331 331 334 343 344 342 339 341 342 340 340 339 336 333 329 327 324 322 323 324 327 324 321 320 320 321 320 319 318 317 317 317 317 317 316 316 315 314 313 313 314 314 314 314 313 313 314 314 315 315 315 314 313 313 313 313 312 313 312 312 312 311 312 312 312 313 314 315 314 314 316 320 326 330
314 313 316 319 319 319 318 318 319 319 318 319 319 319 320 320 321 321 321 324 327 330 331 331 332 334 341 344 341 336 337 342 340 341 339 331 327 326 326 324 323 324 326 327 324 321 319 319 320 319 317 316 316 316 316 316 316 316 315 314 314 313 312 313 313 313 314 313 313 314 314 315 314 314 314 313 313 313 313 313 313 312 312 312 311 311 311 311 312 313 315 314 313 316 320 324 329
313 314 317 319 317 317 317 317 319 318 318 320 319 319 320 320 321 321 321 322 324 329 331 332 332 332 335 335 334 333 335 341 341 341 339 329 325 327 326 322 321 325 326 326 326 322 319 319 318 317 316 315 315 314 314 315 315 316 315 314 313 313 312 312 312 313 313 313 313 314 314 314 314 314 314 313 313 313 313 313 313 313 312 312 312 311 311 311 312 312 314 314 313 317 321 323 327
312 314 316 317 315 315 317 318 318 319 319 320 319 319 320 321 321 321 322 321 322 327 330 330 330 328 332 332 332 332 334 339 339 339 339 330 325 325 325 322 322 327 325 323 326 323 320 318 317 316 315 315 314 314 313 313 314 315 314 313 313 313 313 312 312 312 312 313 313 313 314 314 314 314 314 313 314 313 313 313 313 313 312 312 312 311 311 311 312 312 313 314 314 317 321 323 325
312 314 315 314 315 315 317 318 318 318 320 320 318 319 320 320 320 320 322 321 321 327 330 329 330 330 331 334 334 334 336 339 336 334 332 325 322 321 323 323 324 328 325 323 325 323 321 318 316 315 315 315 314 314 313 313 313 313 313 312 313 312 313 312 312 312 313 312 312 313 314 314 314 314 314 314 314 313 313 313 313 313 312 312 312 312 311 311 312 312 313 314 314 317 319 322 324
311 314 314 313 314 314 316 318 317 317 319 318 318 319 319 320 320 320 321 321 321 328 333 329 330 332 331 334 336 337 338 340 337 332 327 322 321 320 320 321 323 325 323 322 324 322 320 317 316 315 314 315 314 314 314 313 313 312 312 312 312 313 312 313 313 312 313 313 313 313 314 314 314 314 314 314 314 314 313 313 313 313 312 312 312 312 311 311 312 312 313 313 315 318 318 319 322
310 312 313 312 313 314 314 316 317 317 318 317 317 318 318 318 319 319 320 321 321 325 332 331 331 329 329 334 337 338 338 340 339 334 329 323 321 320 320 321 321 322 320 321 323 321 319 316 316 316 315 315 314 315 314 313 313 312 313 312 313 313 313 314 313 313 313 313 313 313 314 314 314 314 313 313 314 314 313 313 313 313 313 312 312 312 311 311 312 312 312 313 315 319 319 320 321
311 310 312 312 312 314 314 315 316 316 317 316 317 317 317 317 318 318 319 321 322 322 325 329 330 325 329 336 339 338 337 341 340 337 334 326 321 321 322 322 320 320 320 320 322 320 318 316 316 316 316 315 315 315 314 314 313 313 313 313 313 313 314 314 313 313 312 313 313 314 314 314 314 314 313 313 313 314 314 313 313 313 313 312 312 312 311 311 312 312 312 312 316 320 320 320 321
311 310 311 311 311 312 313 315 316 316 315 315 315 316 316 316 316 318 318 320 322 321 322 324 325 325 329 335 339 340 337 341 342 339 337 330 323 322 321 321 321 320 319 319 320 319 317 317 316 316 316 315 315 315 315 314 313 314 314 314 314 313 314 314 313 313 312 313 313 313 314 314 314 314 313 313 313 313 313 313 313 313 312 312 312 312 311 311 311 311 311 312 315 319 320 321 323
311 311 310 311 311 312 313 314 315 316 314 314 314 315 315 315 315 316 317 318 319 320 322 323 324 324 326 331 337 340 337 340 341 336 336 333 326 324 323 321 321 321 319 318 319 318 317 317 316 316 316 316 316 315 315 314 314 314 314 314 314 314 314 314 313 313 312 312 313 313 314 314 314 314 313 313 313 313 313 313 313 313 312 312 312 312 311 311 311 311 311 312 315 318 321 324 325
310 310 310 311 311 311 313 313 314 314 313 313 314 314 314 314 315 316 316 317 319 318 320 322 324 325 324 332 337 338 335 336 338 333 333 334 327 323 324 321 321 321 319 319 318 318 318 317 317 317 317 316 316 316 315 315 315 314 314 314 314 314 314 314 314 313 312 312 312 313 313 314 314 314 313 313 313 312 313 313 313 313 313 312 312 312 311 311 311 311 312 314 317 322 324 326 325
309 310 309 310 311 311 312 312 312 312 313 313 313 313 312 313 314 314 315 316 318 317 318 319 320 323 326 332 336 337 335 334 337 335 332 334 330 323 322 321 320 321 319 319 319 318 318 317 317 317 317 317 316 316 316 315 315 315 315 314 314 315 314 314 314 313 312 312 312 313 313 314 314 314 313 312 312 312 312 312 313 313 312 312 312 312 311 311 311 312 314 317 322 325 326 325 325
307 308 307 307 309 310 311 311 311 311 311 312 313 313 313 313 314 314 314 315 317 317 317 317 318 322 327 332 336 337 337 335 337 335 332 336 335 326 321 320 320 320 320 319 319 318 318 318 317 317 317 317 317 316 316 316 316 315 315 315 315 315 315 314 314 313 312 312 312 313 313 313 313 313 313 312 312 312 312 312 312 312 312 312 312 312 312 311 311 313 317 321 325 326 325 324 325
305 305 305 306 307 308 310 310 311 311 311 312 312 313 313 313 314 314 315 316 317 318 318 318 319 323 327 333 337 337 339 340 341 339 337 337 335 330 324 321 320 319 320 319 319 319 318 318 317 317 317 317 317 316 316 317 316 316 315 315 315 315 315 314 313 313 313 312 312 312 313 313 312 313 312 312 312 312 312 312 312 312 312 312 312 312 311 311 311 314 320 324 326 325 324 324 325
306 305 305 306 305 305 308 309 310 310 311 312 312 312 313 313 313 313 315 315 317 319 321 321 322 325 329 333 337 338 340 342 343 342 340 335 332 333 328 322 321 320 320 320 319 319 318 318 317 317 317 317 317 316 316 317 317 316 316 315 315 315 314 314 313 313 313 313 312 312 312 312 312 312 312 312 313 313 313 312 312 312 312 311 312 312 311 312 310 314 322 326 326 324 324 324 325
306 305 306 308 306 305 307 307 309 310 311 312 312 312 313 313 313 314 314 315 316 317 321 325 327 329 331 334 338 339 341 341 340 338 337 335 333 336 332 325 323 321 319 320 319 319 318 318 318 317 317 317 317 316 316 317 317 316 316 316 316 315 315 314 314 314 314 313 313 313 312 312 312 312 313 314 315 317 315 314 312 312 312 311 312 312 311 311 312 316 323 326 325 324 323 324 325
306 306 306 308 308 308 307 306 309 309 310 311 312 313 314 314 313 313 314 315 316 316 322 328 330 331 333 336 338 339 341 340 338 335 336 337 336 338 337 331 330 328 322 320 320 319 319 318 318 317 317 317 317 317 317 316 317 317 316 316 316 316 316 315 315 315 315 314 314 314 314 312 312 312 313 316 318 320 318 315 314 312 312 312 311 312 311 311 314 320 324 325 325 323 323 324 325
306 306 306 308 308 311 310 306 308 309 309 311 312 313 313 313 313 313 315 315 316 316 323 330 333 335 337 338 339 339 338 337 336 335 337 339 340 339 337 333 333 334 330 326 324 321 319 318 318 318 317 317 317 317 317 317 317 317 317 317 317 317 316 316 317 316 316 316 316 315 316 315 314 314 316 319 322 322 319 316 315 314 313 312 311 311 312 313 317 322 324 324 324 323 323 324 325
308 306 309 310 307 312 312 307 308 309 309 310 311 312 312 313 312 313 315 315 318 319 323 331 335 338 339 339 339 336 334 333 335 338 339 342 343 342 336 330 330 333 336 335 334 330 325 320 318 318 318 317 317 317 317 317 317 317 317 317 317 317 317 318 317 318 318 318 318 318 319 319 318 318 320 323 325 324 322 320 319 318 316 314 313 314 316 318 321 324 324 324 323 323 323 324 325
310 307 309 312 308 310 312 308 307 308 309 310 310 312 312 314 313 312 314 314 319 324 326 330 334 337 338 338 336 334 333 336 339 340 341 343 344 343 337 330 328 331 337 339 340 339 335 329 323 319 318 317 317 317 317 317 317 317 317 317 318 318 317 318 318 319 320 320 322 324 324 325 324 324 325 327 328 327 325 324 325 325 322 320 320 322 324 325 326 326 325 324 323 323 324 325 327
313 310 308 311 309 308 310 310 307 307 310 310 310 311 312 316 314 311 313 313 316 323 328 330 333 335 336 336 335 335 337 339 340 342 342 343 345 344 341 336 334 335 338 341 343 342 340 336 330 322 318 318 317 318 317 317 317 318 318 318 317 318 319 320 321 322 323 325 328 330 330 329 329 330 329 329 330 330 328 328 329 329 328 327 327 329 330 330 330 328 326 325 324 324 324 325 327
312 311 308 309 308 307 308 310 308 308 309 310 309 310 311 314 314 311 312 314 316 321 326 329 332 335 337 337 337 337 339 339 339 342 343 343 345 345 344 342 342 340 338 339 339 336 335 334 331 326 320 319 318 318 318 317 318 319 319 319 320 322 324 325 326 327 328 331 333 333 334 333 333 332 332 331 331 332 331 330 331 332 331 331 330 330 331 332 331 330 328 327 325 325 324 325 327
308 307 306 306 306 306 306 306 308 308 309 309 310 311 312 313 314 312 311 313 316 319 327 331 332 334 337 338 339 339 340 337 335 340 343 342 343 344 345 345 345 343 338 335 333 328 328 328 328 327 323 321 321 319 319 318 318 319 319 321 324 327 329 329 331 332 333 335 336 336 337 336 335 335 334 334 333 333 332 332 332 332 331 332 332 331 330 331 331 330 329 327 325 325 325 325 326
304 305 305 305 304 305 306 305 306 307 308 310 310 311 312 313 315 313 309 313 316 318 326 331 332 334 336 338 338 340 339 334 334 340 342 342 342 343 345 345 345 344 340 337 334 328 326 326 329 329 324 324 323 321 320 319 318 320 321 323 326 329 331 332 334 335 336 337 338 338 338 337 337 337 336 336 335 334 333 332 332 332 332 332 333 331 329 329 330 330 329 327 325 325 326 326 326
303 304 304 305 304 305 306 306 305 305 307 309 309 310 311 312 314 312 309 313 317 317 321 328 331 332 334 336 337 339 339 338 339 341 342 342 342 343 345 345 345 345 342 340 338 335 330 329 335 336 331 327 325 322 320 319 321 323 324 325 328 331 332 334 334 336 338 338 339 339 338 338 337 337 337 337 336 335 333 332 331 332 332 332 333 331 329 328 329 330 330 327 327 327 326 327 327
304 304 304 306 306 305 306 306 306 305 307 310 309 309 311 312 313 312 311 312 314 314 318 325 329 330 331 333 334 336 338 339 341 341 342 342 342 343 345 346 346 345 344 340 335 337 338 336 339 338 333 330 327 325 321 321 325 327 327 329 333 334 334 335 336 337 338 339 340 339 339 338 338 338 338 338 337 336 334 331 330 332 333 333 333 330 328 328 328 329 329 327 328 329 328 328 328
305 305 306 308 306 305 308 308 306 306 306 307 308 310 314 315 313 310 309 309 311 313 315 321 327 330 330 331 332 333 336 337 339 341 342 342 342 342 344 346 347 345 344 342 335 337 341 341 342 340 335 332 328 327 325 326 331 331 330 334 338 337 337 337 338 339 338 338 340 340 339 339 338 338 338 338 338 337 334 332 331 332 333 334 333 329 327 329 328 328 329 328 329 330 331 331 329
309 307 307 308 306 305 307 307 307 308 307 306 310 314 319 321 315 311 310 308 311 312 312 316 322 327 329 330 331 331 333 336 338 340 342 342 342 342 343 344 345 341 337 338 335 335 338 340 343 343 340 336 331 328 329 331 335 334 333 337 341 340 339 339 339 339 338 338 341 340 340 339 338 339 338 338 338 337 335 333 332 333 333 334 334 330 327 329 329 329 328 328 329 330 331 331 329
312 309 307 306 305 306 307 306 309 313 309 305 307 309 317 322 317 313 312 311 313 313 312 314 316 324 327 327 329 330 332 335 337 339 339 340 341 341 342 344 344 339 334 335 335 334 336 338 340 341 341 338 332 329 330 333 337 337 335 337 340 340 339 338 335 336 336 339 341 340 340 340 339 339 338 337 337 336 336 335 334 334 333 333 334 332 329 328 330 331 329 327 328 328 329 328 327
313 308 306 306 305 306 307 308 310 311 309 306 306 309 315 319 316 313 313 313 314 314 316 315 313 321 327 326 327 329 332 335 335 337 337 337 339 339 340 342 342 341 339 340 340 339 339 340 340 340 340 337 332 329 330 335 338 338 338 338 337 336 335 333 330 332 335 339 341 340 340 340 339 339 338 337 337 336 336 336 336 335 334 332 333 334 331 328 330 331 329 327 327 328 328 327 326
313 308 306 306 306 306 307 310 310 309 309 308 310 312 310 314 317 314 312 313 312 314 318 317 312 317 325 327 328 328 331 334 334 335 336 336 336 336 338 339 340 340 340 341 342 341 341 343 343 342 341 338 333 329 331 336 337 338 339 339 339 336 333 332 333 332 334 340 342 341 341 340 340 339 338 337 337 336 337 337 337 336 334 332 331 333 333 330 331 332 330 328 327 326 327 327 327
313 310 306 306 306 307 308 310 314 313 310 310 312 309 306 316 323 315 312 313 311 313 319 319 312 311 317 322 326 329 330 333 335 335 335 335 334 334 334 334 336 338 339 340 340 340 341 342 342 342 341 339 335 331 331 335 336 335 334 336 337 337 335 334 336 334 334 340 342 341 341 341 340 339 337 337 337 336 337 337 337 337 335 332 330 331 333 332 332 332 330 329 327 326 327 328 328
310 307 306 308 308 311 312 312 315 316 312 311 311 307 305 316 325 319 315 314 311 313 318 317 311 309 311 315 319 325 329 331 334 335 336 336 332 330 329 331 332 332 334 336 337 339 340 340 340 341 339 338 337 334 332 334 336 336 333 330 332 336 336 335 336 336 336 340 341 341 341 340 340 338 335 336 337 337 337 337 337 338 337 333 329 328 331 333 333 332 331 330 329 328 328 329 329
307 307 309 311 311 315 319 317 315 313 313 314 312 307 304 311 320 321 316 312 309 310 314 315 310 308 310 312 313 317 322 327 330 331 334 335 333 330 330 331 331 331 332 333 335 337 339 340 339 340 339 337 337 335 333 335 337 338 338 335 334 335 336 336 336 336 336 340 341 340 341 340 339 337 334 334 336 337 337 337 337 337 338 335 329 327 330 332 333 333 332 330 330 330 329 329 330
308 311 312 311 311 315 318 316 313 311 312 315 313 307 304 309 316 318 315 314 313 310 309 312 311 308 309 310 311 312 315 321 325 328 330 331 332 333 333 332 332 333 334 334 335 336 338 340 339 339 340 338 337 334 334 337 340 341 341 340 340 338 337 338 336 333 333 339 341 341 341 341 339 337 334 331 334 336 336 336 337 337 338 336 331 327 329 332 333 333 333 331 331 331 330 330 330
312 314 316 314 312 311 312 313 311 311 311 310 309 307 305 310 314 314 313 314 315 311 307 309 310 308 309 309 310 311 311 314 319 324 329 329 330 331 332 334 335 335 335 333 335 338 340 341 340 339 337 336 336 334 333 336 339 342 343 342 343 341 339 340 337 332 333 338 340 341 341 340 338 336 333 329 331 334 335 335 335 336 337 336 332 328 329 331 333 333 334 333 332 331 330 330 330
312 313 316 315 312 310 312 311 308 308 310 307 306 307 308 310 311 311 312 310 309 308 306 307 308 308 309 309 309 310 310 310 312 316 321 326 329 330 330 332 335 337 337 335 335 337 340 341 341 338 333 332 333 334 334 334 336 340 343 343 343 343 342 341 339 333 334 337 338 339 340 340 338 334 329 327 328 331 333 334 334 334 335 336 334 330 328 330 332 333 334 333 333 332 331 330 330
310 309 310 313 314 312 311 311 310 309 311 310 307 307 311 312 309 309 309 306 305 306 306 308 308 308 309 309 309 310 310 311 311 311 312 316 321 327 331 332 333 335 337 338 337 336 338 340 340 336 331 330 331 332 333 334 334 337 341 343 343 343 343 341 340 336 335 336 338 338 338 339 339 335 329 326 327 329 331 332 333 332 333 334 334 331 328 328 330 332 334 334 334 334 333 332 331
310 307 308 311 313 315 311 308 311 311 310 312 309 309 312 312 310 309 307 306 305 305 306 307 307 308 309 309 310 310 310 310 311 311 311 311 312 318 324 329 333 334 335 337 338 337 337 338 338 335 329 328 329 330 331 332 334 336 339 342 343 344 343 341 340 338 335 335 337 338 338 339 340 337 332 327 327 327 329 331 332 332 331 332 333 331 327 326 327 330 332 334 334 335 335 334 333
314 309 309 309 307 313 313 306 308 310 310 312 309 308 312 310 310 315 313 311 308 306 307 307 306 308 308 308 310 310 310 310 310 311 311 311 311 311 314 318 326 333 334 335 336 336 336 337 338 337 333 330 329 328 330 330 332 336 338 341 343 343 342 340 339 338 336 335 337 338 338 339 340 338 333 328 326 326 327 330 332 332 331 330 331 330 327 325 325 327 331 333 334 335 335 335 335
315 312 311 310 305 311 314 310 313 312 311 313 309 308 313 310 311 316 313 311 310 308 307 306 305 307 307 309 310 309 310 310 310 311 310 311 312 311 311 311 316 322 328 332 333 334 334 335 338 338 336 335 331 329 330 330 329 332 336 339 341 341 339 337 337 337 337 337 337 338 339 339 339 337 333 328 326 326 326 328 330 331 331 330 330 330 328 326 325 326 329 332 334 335 335 336 336
309 309 310 310 311 314 313 312 314 311 309 313 310 308 311 310 312 314 310 309 312 311 310 308 307 307 306 307 308 309 310 309 310 310 310 310 310 310 311 311 312 314 319 324 328 333 335 335 336 337 336 336 334 333 334 334 331 329 332 336 337 337 336 336 336 336 337 337 337 338 339 339 337 336 333 328 326 326 325 327 329 329 330 329 329 330 329 328 326 327 329 331 333 334 335 337 337
310 311 311 312 315 316 312 310 311 311 311 313 311 310 312 311 313 315 311 311 313 311 311 310 307 305 306 307 308 308 309 309 310 310 310 310 310 310 310 310 312 312 314 318 323 329 332 332 334 335 335 336 336 335 338 339 337 333 332 332 333 335 335 335 336 336 336 336 337 338 339 339 337 335 333 329 326 325 325 325 327 328 329 329 330 330 330 330 328 328 329 331 333 334 335 337 337
312 314 314 313 313 312 310 309 308 310 313 314 312 313 313 313 314 314 311 311 311 309 310 309 306 305 306 307 308 309 309 309 310 310 310 310 310 310 310 310 310 311 312 315 319 324 326 328 332 333 334 337 335 336 338 338 338 336 334 332 330 331 332 334 336 335 334 333 332 332 335 338 338 336 335 331 326 325 325 325 326 327 328 328 329 330 331 331 330 329 330 331 333 334 336 337 337
310 312 311 310 310 310 311 311 309 309 311 311 311 311 313 313 312 310 310 311 310 308 307 307 306 306 308 308 308 309 309 310 310 311 311 311 310 310 310 310 310 310 311 312 317 323 327 329 331 333 336 336 335 335 336 336 335 333 332 332 331 330 330 333 335 333 333 332 329 326 329 334 336 335 335 332 326 324 325 325 325 326 326 327 328 329 331 331 331 330 330 332 333 334 335 336 337
Wind_Speed
7 11 14 18 18 11 5 4 2 2 2 1 2 1 3 4 2 3 5 4 3 1 1 2 4 5 5 4 7 8 5 5 5 4 3 2 14 23 30 34 34 35 34 31 30 30 27 25 24 22 20 20 21 22 21 21 21 21 21 20 19 18 18 17 17 16 16 17 19 19 20 20 20 21 20 19 17 15 15 15 16 16 15 15 14 12 11 11 10 10 10 11 11 11 11 11 12
8 11 15 19 17 7 0 1 1 1 3 1 2 3 3 4 2 4 5 5 3 3 3 6 9 7 5 5 8 8 5 2 5 6 3 9 23 28 32 33 33 35 33 30 30 30 28 26 24 22 21 20 22 22 22 21 21 21 20 19 19 18 18 17 16 16 16 17 18 20 20 20 21 21 20 19 17 15 15 15 15 15 14 14 13 12 11 10 10 10 10 10 10 10 10 10 10
8 12 16 19 15 4 2 2 1 2 3 3 3 3 2 3 4 5 6 5 5 3 3 5 7 6 4 3 3 4 3 2 5 9 10 18 27 30 33 32 32 34 32 30 30 30 28 26 24 22 21 21 22 23 22 21 21 20 20 19 19 18 18 17 16 16 16 17 18 20 21 21 21 21 20 19 17 15 15 15 15 14 14 13 12 11 10 9 9 9 9 9 9 9 9 9 9
9 11 16 16 11 3 1 2 2 4 4 4 3 4 2 3 5 6 6 4 4 3 1 3 3 4 4 3 2 3 4 3 3 10 17 25 29 31 33 32 31 32 31 30 30 29 28 26 24 22 21 22 23 23 22 22 21 21 19 19 19 18 17 16 16 15 16 17 19 20 21 21 21 21 20 19 17 15 15 15 14 13 13 13 11 10 9 9 8 8 8 8 8 8 7 7 8
10 12 15 13 5 2 1 1 1 4 4 4 3 3 4 5 5 6 5 5 5 4 1 3 2 3 6 6 4 3 4 4 2 7 20 28 30 32 32 32 31 31 30 29 29 28 27 25 23 22 22 22 23 23 22 22 21 20 19 19 18 17 17 16 16 16 16 17 19 21 22 22 22 22 20 19 17 15 15 14 13 12 12 12 10 9 9 8 7 7 7 8 7 7 6 6 7
12 12 14 10 3 1 1 1 2 3 5 4 3 4 6 6 5 6 4 5 4 3 2 1 2 2 6 7 6 4 3 2 2 5 21 29 31 33 31 31 30 30 30 29 28 27 26 25 23 22 22 22 22 23 22 22 21 20 20 18 17 17 16 16 16 16 16 18 20 22 23 22 22 22 21 19 17 16 15 14 12 12 12 11 10 9 8 7 7 6 7 7 7 6 7 7 7
14 13 12 8 4 2 2 3 4 4 5 4 4 4 6 6 6 5 3 4 3 3 1 4 4 4 4 4 4 4 3 1 1 7 23 29 32 32 31 31 29 29 29 28 27 27 26 24 23 22 22 22 22 22 22 21 21 20 19 18 17 16 16 16 17 17 17 18 20 22 23 23 23 22 21 19 17 16 15 13 12 11 11 11 10 9 8 7 6 6 6 7 7 7 8 8 8
15 13 9 6 1 1 2 3 5 4 4 4 4 4 6 9 8 5 0 1 3 4 4 7 5 4 2 2 3 4 2 4 3 12 26 30 31 31 31 30 28 28 28 28 27 26 26 24 23 22 22 22 22 21 21 21 21 20 19 18 17 16 16 17 17 18 18 19 21 22 23 23 22 22 21 19 17 16 15 13 11 11 10 10 9 8 7 6 6 6 6 7 8 9 10 10 9
17 12 6 4 2 1 2 3 4 4 4 5 5 5 7 11 8 4 2 1 3 1 5 4 4 3 1 4 4 4 4 5 5 16 27 28 29 30 30 28 27 27 27 27 27 28 26 25 23 22 22 21 21 21 21 20 20 20 18 17 17 17 17 18 19 19 19 20 21 22 23 23 22 22 21 19 17 16 14 12 11 10 10 9 8 7 7 6 6 5 6 7 9 11 11 12 12
17 12 5 2 2 4 5 3 4 3 4 5 6 10 9 10 7 2 2 2 2 2 5 3 6 7 4 4 4 2 4 5 10 21 25 26 28 29 29 27 26 27 28 28 29 28 26 25 24 22 22 21 21 21 20 20 20 19 18 17 17 17 18 19 20 20 20 19 20 21 22 22 22 22 21 19 17 16 14 12 11 10 9 8 7 7 6 6 6 5 6 7 10 11 12 13 13
12 8 5 2 3 6 6 5 4 3 3 4 6 14 14 10 7 3 2 2 3 6 8 4 5 10 7 2 2 1 4 7 13 23 24 24 27 29 28 26 26 27 28 29 29 28 27 26 24 23 22 21 21 20 20 20 19 18 17 18 17 18 18 19 20 20 20 19 20 20 21 21 21 21 20 19 17 16 14 12 11 10 9 8 7 6 6 6 5 5 6 7 9 11 12 13 14
8 3 4 3 5 5 5 5 5 4 4 3 5 13 16 11 6 3 4 5 6 8 10 6 4 8 6 1 3 6 9 11 14 22 23 23 26 28 27 23 24 26 26 28 29 27 27 26 25 23 22 22 21 20 20 20 19 18 18 18 18 18 19 20 20 20 20 19 20 20 20 20 20 21 20 19 18 16 14 12 11 10 9 7 7 6 6 5 5 4 5 6 8 10 12 12 13
9 4 5 3 4 4 4 4 5 5 5 4 5 10 13 12 10 10 9 9 10 8 9 8 7 7 3 3 7 9 12 14 17 22 23 22 23 26 26 21 21 25 26 28 28 27 27 26 26 24 23 22 21 21 20 20 19 18 18 18 18 18 19 20 20 20 20 20 19 19 19 19 19 20 20 19 17 16 14 12 11 10 9 8 7 6 6 5 5 3 4 6 8 10 11 12 12
12 6 6 3 2 4 5 4 5 6 6 5 9 10 10 11 12 16 13 8 11 9 8 10 10 6 3 4 6 12 16 17 22 25 25 23 22 23 24 21 21 25 27 28 27 26 26 26 26 25 24 23 22 21 20 20 19 18 18 18 18 18 19 19 19 20 20 20 19 19 19 19 18 18 19 18 17 16 15 13 11 10 9 8 7 6 5 5 4 3 3 5 7 9 11 11 12
15 7 5 2 2 4 6 5 6 7 6 5 10 14 13 15 13 14 15 10 10 11 10 10 11 5 4 8 9 19 23 22 26 28 27 24 22 21 22 22 21 24 27 27 27 26 26 26 26 25 24 23 22 22 21 20 19 19 18 18 18 18 18 18 19 19 19 20 19 18 18 18 18 17 17 17 16 16 15 13 11 10 10 9 7 6 5 4 4 3 2 5 7 8 10 10 11
15 8 2 3 6 6 6 5 6 5 6 5 11 15 12 16 17 15 16 14 9 10 11 12 14 7 8 14 12 22 29 26 28 28 28 25 21 19 20 22 22 24 26 26 27 27 27 26 25 24 23 23 22 22 21 21 20 19 19 19 18 18 18 17 18 18 19 19 19 18 17 17 17 17 17 16 16 15 14 13 12 11 10 9 8 7 5 4 3 3 2 4 6 7 9 10 10
11 8 2 6 7 7 6 5 7 5 4 6 11 16 9 9 17 17 15 15 12 14 15 12 15 12 13 15 13 22 30 29 30 29 29 27 23 21 21 23 26 27 27 27 28 28 28 26 25 24 24 23 23 22 21 21 20 20 20 19 18 18 18 17 17 17 18 19 19 18 16 16 16 16 16 15 15 14 14 14 13 12 11 10 8 7 5 4 3 2 1 3 5 6 8 9 10
8 4 5 8 6 6 5 6 6 4 5 6 12 18 13 7 11 13 10 11 13 15 16 14 15 14 14 15 14 23 32 33 33 31 32 31 27 28 27 26 28 30 29 30 30 29 29 27 26 25 25 24 23 22 22 21 21 21 21 20 19 19 18 17 17 17 18 18 18 17 16 15 15 15 15 15 14 14 14 14 14 13 12 10 9 7 6 5 4 3 2 1 4 5 6 8 9
8 1 3 8 4 4 5 7 7 5 5 7 13 18 15 11 10 11 7 8 11 10 11 13 16 15 13 15 16 26 33 35 35 35 36 34 31 32 30 27 30 32 31 32 32 31 29 27 27 26 26 25 24 23 23 22 22 21 21 21 21 20 19 18 18 17 17 17 17 17 16 15 15 15 15 14 13 13 14 14 14 13 12 11 9 7 6 5 4 3 2 0 2 4 5 6 8
8 4 3 6 3 2 5 6 8 8 7 5 7 11 11 11 11 11 8 9 11 9 9 11 14 17 17 17 20 29 35 36 38 38 38 37 36 35 32 30 32 33 34 34 34 33 30 28 28 28 27 26 25 25 24 23 22 22 22 22 22 21 21 20 19 19 18 18 17 17 16 16 15 15 15 14 14 14 14 15 15 14 13 12 10 8 7 6 5 4 3 1 1 3 4 5 7
5 6 5 5 2 2 7 9 10 8 7 5 5 7 6 7 9 10 8 7 6 9 17 17 17 22 25 22 25 34 38 40 42 41 41 40 40 39 37 33 32 34 35 35 35 33 31 30 30 29 29 28 27 26 25 24 24 23 23 23 23 22 22 22 21 20 19 19 18 18 17 16 16 16 15 15 14 14 14 15 14 14 13 12 10 9 8 7 5 5 4 2 0 2 3 5 6
3 5 7 7 4 2 6 11 14 13 9 6 5 5 4 4 7 12 12 7 6 11 19 22 21 21 25 26 29 37 41 43 45 44 42 40 39 40 40 38 35 37 37 36 36 34 33 32 31 31 30 29 28 27 26 25 25 25 25 24 24 23 23 22 22 21 20 20 19 19 18 18 18 17 16 15 14 14 14 14 14 14 14 12 11 10 9 7 6 5 5 4 2 1 3 4 6
5 5 5 7 7 6 8 11 14 16 11 6 6 5 5 5 5 10 13 12 15 15 14 21 25 24 27 29 33 39 43 45 46 45 42 39 39 39 40 42 40 40 39 39 37 36 35 34 33 32 31 30 29 28 27 26 26 26 25 25 24 24 23 22 22 21 20 20 20 20 19 19 18 18 18 17 15 14 14 14 14 14 14 13 12 11 10 8 7 6 5 4 3 1 2 4 5
7 4 3 5 8 9 12 13 13 13 11 9 7 5 6 7 4 5 10 15 18 12 7 13 21 25 29 31 36 41 45 47 48 46 43 40 41 41 40 42 41 39 40 40 38 37 37 36 34 33 32 31 30 29 28 28 27 27 26 25 25 24 23 22 21 21 20 20 20 20 20 19 18 18 18 17 16 15 15 14 14 15 15 14 13 12 11 10 8 7 6 5 4 2 2 3 4
6 4 4 6 12 14 16 17 16 14 12 13 11 8 8 9 6 6 10 14 17 14 12 13 13 18 24 31 38 43 47 49 48 46 44 42 42 44 42 41 43 42 41 39 39 39 38 37 36 34 33 32 31 30 29 29 28 27 26 25 25 23 23 22 21 21 20 20 20 20 19 19 18 18 18 17 16 15 15 16 16 16 16 15 14 13 11 11 10 9 8 6 5 3 3 3 4
3 4 6 5 11 16 17 18 18 16 11 10 9 7 9 9 7 8 13 16 19 21 21 18 16 18 21 31 39 44 48 49 49 48 46 43 40 43 42 41 43 42 41 40 40 40 39 37 37 35 34 33 32 31 30 29 28 27 26 25 24 23 22 21 21 21 20 20 20 19 19 18 17 17 18 17 16 16 16 16 17 17 16 16 14 13 12 12 11 11 10 8 6 4 3 2 3
5 7 8 9 13 15 16 16 20 18 11 11 8 5 12 13 6 5 9 11 13 17 18 17 19 22 24 31 39 43 44 42 42 43 42 39 38 40 39 39 41 41 41 41 41 40 39 37 36 36 35 33 32 31 30 29 28 27 26 25 24 23 22 21 21 21 21 20 19 19 18 17 17 17 17 17 15 16 16 17 17 17 17 16 15 14 13 13 13 13 11 10 7 5 3 1 2
12 8 7 11 12 13 14 13 17 15 8 11 9 5 13 13 8 10 10 8 8 10 12 13 18 23 27 32 39 42 41 39 34 34 38 41 41 40 39 40 41 42 42 40 40 39 38 37 36 35 34 33 32 31 30 29 28 26 25 24 23 22 21 21 21 21 21 20 19 18 17 17 17 17 17 16 15 15 16 16 16 16 16 16 16 15 14 13 14 14 13 11 8 6 4 1 2
12 4 3 8 4 6 12 11 14 12 5 8 6 3 8 10 12 12 11 11 13 15 14 14 19 23 28 33 38 38 37 39 38 38 42 44 43 42 42 43 42 43 42 40 40 39 37 37 36 35 34 33 32 31 31 29 27 26 25 24 22 21 22 21 21 21 20 20 19 18 17 17 17 17 17 16 15 14 15 16 15 15 15 16 17 15 14 14 14 14 13 11 9 7 4 2 1
9 2 1 5 5 3 10 11 14 12 8 10 7 3 7 13 12 5 5 9 13 16 17 19 23 25 29 34 37 35 35 39 42 44 45 45 45 45 44 44 43 41 41 42 42 39 37 37 35 35 34 33 33 33 31 30 28 26 25 24 22 22 22 22 21 21 20 19 19 18 17 17 17 17 18 17 16 14 14 15 14 14 15 16 17 16 15 14 14 14 13 12 10 7 4 3 1
4 2 1 1 2 4 6 7 11 9 10 15 10 4 9 12 6 3 7 10 11 13 17 22 26 27 30 32 34 35 36 38 41 43 45 45 46 46 45 43 42 39 40 41 40 38 37 36 35 35 35 34 35 34 32 30 28 26 25 24 24 23 23 23 22 21 20 19 19 18 17 17 17 17 17 18 16 14 15 15 14 13 14 16 17 17 16 15 15 14 13 12 10 7 5 3 2
2 1 4 2 2 5 7 5 12 11 8 14 13 5 8 10 5 7 9 10 14 16 18 22 26 28 30 31 32 35 36 35 37 39 42 43 42 43 45 44 43 42 41 39 36 36 35 34 34 33 34 35 34 33 31 30 29 27 25 25 24 24 23 23 22 21 20 19 18 17 17 17 17 17 17 18 17 15 15 15 14 13 13 14 16 16 15 15 14 14 13 11 10 8 5 3 2
3 1 3 3 2 3 5 4 9 13 8 10 13 6 3 6 9 13 12 10 13 12 15 21 26 28 29 31 32 33 33 32 33 36 40 43 41 40 43 45 44 43 41 38 35 33 31 31 31 32 33 34 33 32 31 30 29 27 25 25 24 24 24 24 23 22 21 19 18 17 17 16 16 17 18 19 18 16 15 15 14 13 13 14 15 15 14 14 13 13 12 11 9 7 5 3 2
3 1 1 3 2 2 2 4 2 6 6 8 13 9 4 4 8 12 12 15 15 11 14 20 25 28 30 32 33 32 33 32 33 37 40 43 42 39 41 43 43 42 39 37 31 25 24 25 28 31 33 33 33 32 31 31 29 26 25 25 25 25 25 24 24 23 21 19 18 17 16 16 16 16 18 19 19 16 15 15 14 13 14 13 14 14 14 14 14 13 12 11 9 7 5 4 3
3 1 1 3 3 2 3 4 1 1 4 9 10 7 7 5 8 12 9 15 18 15 18 22 26 29 30 32 33 33 34 35 38 40 40 41 41 39 39 40 41 39 37 33 28 24 23 25 27 31 33 35 35 34 33 32 29 26 25 25 25 26 25 25 24 23 20 19 18 17 16 15 15 15 16 17 18 16 15 15 14 14 14 13 13 15 15 15 15 14 13 11 10 8 6 5 4
4 3 2 2 3 4 5 5 5 2 2 7 6 5 6 5 9 12 9 13 16 15 16 19 24 28 30 32 33 34 35 38 40 39 39 39 39 39 40 41 40 39 36 33 33 33 31 32 33 34 36 37 37 36 34 32 30 27 27 27 28 28 26 26 25 22 21 19 18 18 16 14 14 14 14 14 15 15 15 15 15 14 15 14 13 14 16 17 16 15 13 11 10 8 7 5 5
3 2 2 3 3 5 7 5 6 3 2 5 4 7 6 7 9 9 7 12 13 12 12 14 19 23 27 29 30 33 37 40 39 36 36 36 35 37 38 41 42 40 36 35 37 38 38 39 39 38 36 36 36 36 34 33 32 31 31 31 31 29 28 27 25 23 21 19 19 19 16 14 13 13 12 12 11 12 13 14 14 14 15 15 13 13 13 16 17 15 12 11 10 8 7 6 5
2 3 3 4 3 5 8 5 4 2 3 3 2 7 6 8 9 5 5 8 9 13 14 14 19 22 23 25 26 29 33 34 34 33 33 34 34 36 38 40 43 40 37 36 36 37 39 41 40 36 35 35 35 35 34 33 33 33 33 32 31 29 28 27 24 23 21 19 19 19 16 15 14 14 12 10 9 9 12 14 15 13 13 14 13 13 13 15 17 16 14 12 10 8 7 7 6
2 2 2 3 3 4 7 6 4 1 3 2 1 5 6 7 7 4 6 7 9 19 22 20 24 24 22 24 25 26 27 26 27 28 31 35 36 36 38 40 41 40 38 36 34 36 39 40 39 37 36 35 35 35 33 32 32 32 32 31 29 27 26 25 22 21 20 19 20 19 18 16 15 15 13 10 9 8 10 13 15 14 14 14 14 15 16 17 18 17 15 12 10 9 8 8 8
2 3 3 3 3 1 3 5 5 4 1 0 2 3 4 5 4 4 7 8 8 16 22 22 25 28 27 28 29 28 27 25 24 25 28 33 36 38 39 41 41 39 39 39 37 40 42 42 41 40 37 35 35 35 33 31 30 30 31 30 27 26 24 22 21 21 21 22 23 21 20 19 16 15 13 11 10 8 9 12 13 15 15 15 16 17 18 18 19 18 15 13 11 10 10 10 10
2 3 3 3 4 2 4 3 5 4 3 3 5 2 4 4 2 4 4 4 5 8 13 16 20 26 30 32 33 33 33 30 27 27 29 31 34 38 40 42 41 37 37 41 41 42 42 42 41 39 36 35 36 36 33 30 29 30 32 30 28 26 25 23 23 25 26 26 26 24 22 21 18 15 13 12 11 9 10 11 12 14 16 17 17 19 20 20 19 17 15 13 11 11 10 10 11
4 2 4 5 5 4 4 4 4 4 4 2 4 2 4 5 2 5 4 2 4 4 5 11 19 24 27 31 33 33 34 34 32 32 32 31 31 35 38 40 42 40 41 43 43 42 41 39 38 36 36 37 37 36 32 31 31 33 34 32 30 29 28 27 26 28 29 30 29 25 23 23 19 16 14 13 12 11 12 12 12 13 15 18 19 20 21 21 20 17 15 12 11 10 10 10 11
4 2 4 3 2 3 4 3 4 3 2 3 3 3 3 6 3 5 4 2 4 5 5 7 15 20 24 28 31 31 33 34 33 33 32 31 31 32 35 38 41 45 47 46 45 43 41 40 38 37 38 38 38 35 32 33 34 35 35 34 31 29 28 27 26 27 29 31 30 25 25 24 21 18 16 15 15 14 14 13 13 13 15 18 20 21 22 23 21 17 14 12 11 11 10 11 12
2 3 1 2 3 2 2 3 4 1 2 3 5 3 2 3 4 3 2 1 3 5 6 7 9 16 22 27 29 30 33 34 32 32 33 33 34 35 36 37 39 44 46 45 45 44 43 43 42 40 39 38 37 35 34 35 33 32 36 37 34 31 29 28 28 28 28 30 30 26 25 25 22 19 17 17 16 16 16 16 15 14 15 18 21 23 23 24 22 18 15 13 13 12 11 12 13
5 4 1 2 1 1 2 5 3 1 2 3 6 3 2 3 5 3 2 3 3 7 7 7 9 10 14 19 24 27 30 33 33 34 35 35 36 38 38 38 38 39 40 40 42 45 44 43 43 41 39 38 38 37 37 37 32 29 33 36 36 35 31 31 32 28 25 29 31 27 25 26 24 21 19 18 18 17 18 18 17 16 16 18 22 24 24 25 23 20 18 16 14 14 12 12 13
4 1 3 4 4 4 4 5 2 3 4 1 5 4 1 3 5 4 2 4 2 6 6 6 9 10 9 12 17 22 26 29 31 33 35 36 38 38 38 39 38 35 34 34 36 42 45 44 43 42 40 39 39 38 37 37 35 34 37 38 38 36 34 36 35 29 25 28 29 27 26 26 25 22 20 20 19 19 20 19 19 18 17 17 20 24 25 26 25 22 20 17 15 14 13 12 13
2 4 3 4 6 4 3 3 3 4 3 4 5 1 3 1 5 3 0 1 2 2 1 5 7 7 5 6 8 13 20 25 28 29 32 33 34 33 33 36 37 34 33 33 34 39 44 46 44 42 41 40 40 39 39 40 39 40 43 42 40 37 38 40 38 32 29 28 28 28 28 28 26 23 20 21 22 21 21 21 20 20 18 17 19 23 25 26 26 23 21 19 17 15 14 13 13
3 4 3 2 3 4 4 4 3 3 2 5 3 1 3 1 4 3 3 5 3 3 3 3 6 8 7 5 4 4 8 15 21 24 27 29 30 30 30 33 35 34 34 34 35 40 44 46 44 42 41 41 41 41 41 41 41 41 42 42 41 39 41 43 41 36 34 31 29 29 29 28 27 24 22 23 24 22 22 22 22 22 20 18 18 22 25 26 25 24 22 21 18 16 14 14 14
5 4 4 3 2 3 2 3 2 1 3 2 3 3 1 3 6 4 4 5 6 3 1 3 6 9 11 9 8 7 6 5 9 15 20 24 28 30 32 33 34 34 35 35 37 41 44 44 44 41 39 40 42 42 42 41 40 41 41 42 42 41 42 42 38 36 35 32 30 30 30 29 28 27 25 26 26 24 23 23 23 23 22 19 18 21 25 26 26 24 22 22 20 17 15 15 15
4 3 3 2 2 3 1 3 1 1 3 2 4 3 1 3 5 4 5 6 6 7 6 5 6 9 11 10 9 10 9 7 5 8 12 17 23 28 31 32 33 34 36 36 37 40 42 43 43 41 38 38 41 42 42 42 42 42 42 42 43 42 43 42 37 34 33 32 31 31 31 30 29 28 25 25 26 24 23 23 24 24 22 20 19 20 24 27 27 25 23 22 20 18 17 16 16
1 3 4 2 3 3 2 2 1 2 2 3 4 1 2 2 3 4 5 6 6 9 8 3 4 7 8 10 11 12 11 9 8 7 8 12 16 21 26 30 33 35 36 37 38 39 42 43 42 39 37 37 39 41 41 42 43 44 42 42 44 45 44 43 38 34 32 32 33 33 32 31 31 28 24 24 25 24 23 23 23 24 23 21 19 20 24 27 28 26 23 22 20 19 18 16 16
2 2 4 1 2 3 2 2 3 2 1 2 2 2 3 4 5 4 1 1 1 4 4 2 4 5 7 9 11 11 12 12 11 9 8 9 12 15 20 25 30 34 36 38 39 39 41 42 41 39 37 37 39 40 40 40 41 43 42 42 44 45 45 43 40 35 32 32 35 35 33 33 32 28 24 24 25 24 23 22 22 23 23 22 21 20 22 26 28 27 24 22 21 20 19 17 17
1 2 1 2 3 5 4 1 1 4 2 2 2 2 4 4 6 5 5 5 4 3 3 4 4 3 4 7 9 10 11 12 12 12 10 10 11 13 16 20 26 31 34 36 38 39 41 42 42 41 41 41 41 41 41 40 39 40 41 41 43 44 44 43 41 37 33 33 34 35 35 34 33 29 25 25 26 25 24 23 23 23 22 22 22 21 22 24 27 28 26 24 22 21 20 19 18
2 1 2 2 1 3 4 2 3 4 1 3 2 2 4 2 3 6 8 6 3 2 1 3 6 4 2 5 8 9 11 12 14 14 13 12 11 12 14 17 20 24 29 32 34 36 39 42 44 43 44 44 43 44 43 41 40 40 41 41 41 42 42 42 40 38 35 34 35 35 36 35 33 30 27 26 27 26 25 25 24 23 23 22 22 22 23 24 26 28 28 27 25 24 23 21 20
3 2 2 2 2 1 1 2 0 1 1 3 3 3 3 2 4 6 8 6 6 5 2 1 3 4 6 7 9 10 11 14 16 17 17 16 14 14 15 16 18 21 24 28 30 33 37 41 44 45 45 44 44 46 45 43 41 41 42 42 41 41 42 42 41 38 37 37 36 36 36 36 33 31 29 28 28 28 26 26 26 25 23 23 23 23 23 24 26 28 28 28 27 26 25 23 21
3 2 2 2 3 2 1 1 2 1 1 2 3 3 3 4 5 4 6 7 6 7 6 3 2 2 6 9 11 12 13 16 19 20 21 20 18 18 17 17 17 18 21 23 27 32 35 38 41 44 45 44 44 46 47 45 42 42 42 42 42 41 41 42 41 39 39 38 36 36 37 37 35 33 31 29 29 29 28 27 27 26 25 25 24 24 25 25 26 28 28 28 28 27 26 23 21
3 4 4 3 2 1 0 1 1 2 2 1 1 3 5 5 4 5 7 8 6 6 6 6 5 6 7 11 14 15 17 20 24 26 26 26 25 23 21 20 19 18 19 20 23 28 33 37 39 42 44 45 45 45 46 45 42 41 42 43 44 42 41 42 41 40 39 35 31 31 35 37 37 36 34 32 30 30 30 29 27 26 26 25 25 25 25 26 27 28 28 28 28 28 27 24 22
2 1 2 1 1 2 2 1 2 1 1 2 1 3 6 5 3 4 4 3 4 6 6 6 11 13 13 15 18 20 21 24 28 31 32 32 31 29 27 25 22 20 19 19 20 26 32 36 38 41 43 45 46 45 45 43 41 40 41 43 45 45 43 42 41 40 40 36 31 30 33 35 36 36 35 32 30 31 31 29 27 26 26 25 25 26 26 27 28 29 29 29 29 28 27 25 23
Wind_Direction
146 156 158 154 149 141 134 139 123 351 85 115 256 227 242 237 252 274 279 309 328 300 91 133 144 137 133 122 143 130 93 150 176 166 218 224 152 166 171 169 167 166 165 164 168 170 169 172 175 178 178 175 172 168 164 160 157 154 152 152 150 150 150 148 146 144 146 146 148 146 145 147 150 152 149 146 143 137 130 125 121 118 117 116 116 116 116 109 101 94 87 82 76 72 68 66 66
143 160 162 162 160 148 157 123 119 6 82 163 251 189 244 287 291 254 260 276 225 172 101 106 111 114 111 102 126 122 68 86 178 182 175 161 157 160 165 166 167 166 164 164 168 169 170 172 175 179 177 175 172 169 165 160 157 155 154 153 153 152 150 149 149 149 150 151 152 150 149 150 154 155 152 150 147 139 132 125 121 120 120 119 119 120 115 106 100 94 87 82 74 69 63 60 60
142 163 167 168 171 182 333 54 128 137 140 198 248 235 260 287 264 267 264 235 193 166 106 110 99 82 94 119 115 127 111 72 169 167 149 157 159 156 162 166 167 167 165 164 168 170 171 172 176 178 176 175 173 169 165 160 158 157 157 157 157 155 152 152 152 153 154 155 157 155 154 153 156 157 155 153 150 142 133 126 123 122 122 123 123 121 112 103 99 94 88 81 75 68 62 58 56
151 163 168 165 169 198 26 76 154 145 174 200 228 244 232 233 254 281 276 234 224 258 344 60 69 56 66 106 51 75 85 54 177 164 150 158 160 156 162 167 168 169 167 166 169 171 171 173 177 177 175 175 173 170 165 161 160 160 161 161 160 157 155 155 154 155 156 157 159 159 157 156 158 159 158 157 152 144 134 128 125 124 124 125 125 120 109 101 96 92 86 79 73 66 60 52 51
168 164 168 161 154 195 136 119 141 150 198 182 179 243 219 218 245 265 266 268 279 285 324 52 71 67 72 67 26 49 52 56 112 157 152 158 160 156 163 168 168 170 170 169 169 171 173 174 176 176 175 174 173 170 166 162 162 163 165 165 162 159 158 157 156 156 156 157 160 161 159 158 160 161 162 159 155 145 135 129 127 126 125 126 125 118 106 99 95 91 84 75 67 58 50 43 42
177 167 173 179 201 246 155 183 182 195 226 173 165 231 210 204 218 235 261 286 281 275 276 104 122 114 89 57 42 63 18 56 87 173 157 156 159 157 163 167 168 170 170 170 170 174 174 175 176 176 175 174 173 170 167 164 164 166 168 166 162 161 160 158 157 156 157 158 160 161 160 160 161 164 164 161 156 147 136 132 131 128 126 127 124 114 106 99 95 90 81 71 60 49 39 35 34
178 169 173 190 240 240 155 201 204 212 235 194 180 201 203 202 181 197 293 319 295 289 298 106 116 122 98 54 65 51 1 96 101 175 158 155 159 159 163 166 169 171 170 169 171 175 175 176 177 177 176 173 172 170 168 165 167 170 169 166 163 163 161 160 158 158 159 158 160 161 162 162 164 166 166 164 158 149 140 137 136 132 128 127 121 111 106 100 95 86 74 66 54 45 36 31 29
180 175 167 169 241 225 159 206 214 202 230 232 221 198 193 191 171 171 255 359 287 309 108 114 94 96 43 15 72 44 73 106 99 163 156 156 160 161 164 166 169 172 172 169 171 176 175 176 177 177 176 173 172 171 169 168 170 172 169 165 165 164 162 162 160 159 159 159 160 162 164 165 166 167 168 166 161 151 144 143 140 135 131 128 122 114 110 104 97 84 69 60 49 42 36 36 37
181 179 162 159 183 212 205 213 219 210 235 245 243 239 200 188 179 164 148 13 289 336 121 127 63 103 40 23 53 60 96 99 132 160 156 157 161 162 163 167 170 172 173 171 172 176 176 176 177 177 176 173 173 172 170 171 173 172 169 168 168 165 164 163 161 160 159 159 161 164 165 167 168 169 169 168 163 154 150 149 143 137 134 133 129 121 117 108 98 85 65 53 46 43 39 42 47
180 185 173 147 168 203 222 213 215 216 222 219 230 240 220 204 208 177 168 316 288 155 143 128 84 117 116 35 36 54 86 100 157 160 157 160 161 162 163 169 174 173 174 176 174 175 176 176 176 177 176 175 174 175 173 174 174 172 171 171 171 168 166 163 161 161 160 161 163 165 166 168 170 170 171 171 166 158 157 156 148 141 138 139 138 131 123 110 99 83 59 46 45 46 43 46 51
178 191 179 168 196 210 215 206 215 228 235 222 234 237 231 222 230 269 245 271 258 192 176 161 107 115 103 41 46 165 124 111 161 160 155 161 162 164 166 170 177 178 177 178 176 174 176 174 175 177 177 176 176 177 175 177 175 173 174 174 174 171 167 164 163 162 161 162 164 165 167 169 170 171 173 172 168 164 164 162 154 145 143 146 146 141 129 113 99 79 54 44 46 49 49 48 50
183 181 163 201 212 209 201 199 213 226 258 232 224 233 231 221 210 231 232 235 230 198 182 183 161 131 99 55 156 173 149 130 165 164 156 162 166 169 171 171 179 183 180 179 178 176 176 174 174 177 178 178 178 178 178 179 177 176 178 178 177 173 169 166 165 165 164 164 165 167 169 170 172 173 174 174 171 169 171 169 159 150 149 152 153 150 137 120 101 81 53 45 46 50 55 53 50
193 160 158 215 205 179 178 195 198 206 246 223 212 226 222 215 208 208 210 221 219 197 181 182 167 148 113 146 166 170 154 149 167 167 162 164 167 171 176 178 181 183 181 181 182 177 176 175 175 178 179 178 178 180 181 180 179 180 182 182 179 175 172 169 168 168 167 166 166 168 170 172 175 176 175 175 174 174 178 174 166 158 156 159 160 158 144 127 110 89 53 45 44 49 58 57 52
199 167 169 223 210 175 182 195 179 199 228 206 215 224 217 217 219 220 214 211 221 203 175 187 179 153 117 135 174 175 161 159 164 167 168 165 166 170 178 184 183 184 184 185 184 179 178 177 176 178 179 180 179 180 183 182 181 183 185 185 181 177 175 172 172 171 170 169 168 170 172 174 177 180 178 176 177 179 181 179 174 168 164 166 166 165 152 136 121 103 55 43 42 48 57 60 55
202 182 153 197 216 193 200 201 178 205 225 188 212 220 223 229 231 231 219 211 231 208 163 173 185 178 173 174 188 177 166 163 165 170 172 166 166 169 175 182 187 191 189 188 187 181 180 180 178 178 180 180 180 181 183 183 183 186 188 188 184 180 178 174 175 174 174 172 170 171 173 176 179 183 181 178 180 183 184 183 184 178 173 173 170 171 159 144 131 115 59 39 43 46 54 61 56
203 194 102 204 214 207 203 189 173 205 225 195 205 207 218 236 231 231 226 222 224 197 175 173 183 206 210 199 206 180 168 166 167 171 175 169 165 167 173 181 189 193 193 194 191 185 181 182 180 179 181 181 181 181 183 184 186 189 190 190 186 181 180 177 177 176 176 174 173 174 174 177 181 185 184 182 183 186 187 188 191 188 183 180 175 172 164 152 140 123 69 36 44 47 51 58 56
200 201 209 221 216 210 194 172 183 189 200 201 198 194 199 235 228 226 233 233 220 201 198 189 191 215 225 221 223 185 172 170 169 171 176 171 166 169 181 190 191 189 193 198 196 190 184 182 181 180 181 182 182 181 184 186 187 191 192 190 187 183 181 178 179 180 179 176 175 176 177 179 183 187 187 186 187 189 191 193 197 197 193 188 180 174 167 161 153 137 102 32 44 49 50 54 54
192 191 219 225 215 208 183 166 192 159 160 199 193 191 192 214 218 213 228 230 214 205 200 191 194 211 223 230 222 188 177 174 172 175 176 170 169 175 185 197 199 191 192 198 199 194 187 183 183 182 183 183 182 182 185 188 190 193 192 190 186 183 180 178 180 182 181 176 175 178 179 181 186 190 190 189 189 192 196 199 202 203 200 195 187 178 172 171 161 147 146 33 45 50 47 50 49
203 137 214 228 208 205 185 168 187 167 179 198 194 197 197 212 208 192 211 216 195 192 199 194 191 201 222 234 219 190 179 177 175 179 180 174 179 180 177 190 201 198 195 198 200 196 189 185 185 184 184 184 182 184 187 189 192 193 192 190 186 183 180 179 181 185 183 178 176 179 180 183 188 192 194 192 191 195 201 204 206 206 204 200 193 182 180 179 165 151 159 138 48 50 43 44 43
213 196 227 239 186 220 229 191 192 191 204 202 201 208 202 214 212 193 205 216 201 188 198 195 188 203 222 226 213 193 181 178 178 183 187 184 185 180 173 184 199 202 200 199 200 196 190 187 187 186 186 185 184 186 189 191 194 194 193 191 187 184 182 180 183 187 186 180 178 180 182 186 190 194 196 195 193 197 205 209 211 210 206 203 196 187 185 183 171 162 165 195 48 50 36 33 35
208 197 222 242 180 225 237 232 236 224 217 227 236 235 223 226 221 214 214 213 220 206 202 197 191 204 213 211 204 194 184 180 183 187 191 188 184 180 175 182 196 204 202 201 201 196 190 189 189 188 188 187 186 188 190 193 195 195 194 192 190 186 184 182 184 188 188 184 181 181 185 188 192 196 198 198 197 199 207 212 214 214 210 207 200 192 189 185 179 172 169 190 243 30 23 21 22
239 225 230 242 239 250 230 227 241 250 246 233 243 253 252 252 232 225 220 207 226 228 217 210 203 208 215 212 202 193 185 185 187 190 193 189 185 183 178 180 193 202 202 202 201 196 191 192 191 189 190 188 188 190 190 194 196 196 195 193 192 190 187 185 186 190 190 187 183 184 188 190 194 197 198 200 201 203 208 214 217 216 213 209 202 196 193 188 183 179 175 183 209 334 5 10 14
239 257 237 240 234 229 243 233 230 245 246 215 218 249 252 248 251 234 226 224 229 235 236 226 219 226 234 222 203 193 190 190 190 191 194 191 189 189 184 184 192 198 201 202 200 197 194 193 193 191 191 190 190 192 192 196 198 198 197 196 195 193 189 187 188 192 193 189 186 187 190 192 196 199 199 199 201 206 210 216 219 218 216 211 202 197 194 187 185 187 184 182 191 222 331 352 11
226 253 255 255 247 233 247 252 245 252 255 244 233 239 250 241 251 250 240 240 235 234 260 246 227 230 235 218 202 199 197 195 193 192 194 194 192 193 191 190 193 196 201 202 199 198 197 195 194 193 193 192 192 193 194 198 199 199 200 199 198 196 192 190 191 194 196 193 190 190 193 195 198 202 202 198 200 206 210 215 219 218 216 211 203 198 192 186 186 188 187 185 188 204 286 333 11
219 236 262 253 255 252 253 262 266 269 272 273 266 250 248 243 247 245 237 247 249 248 270 278 255 242 234 214 205 204 202 198 195 193 196 199 196 194 194 195 196 198 201 202 201 200 199 197 196 195 194 193 194 195 197 200 201 201 202 202 200 198 196 194 193 197 201 199 195 194 197 199 201 205 206 200 198 205 211 214 218 219 217 212 204 198 192 185 185 186 187 192 196 217 277 327 13
205 236 271 253 249 251 250 254 261 267 270 270 273 271 268 256 252 249 235 240 254 258 266 270 255 245 232 215 208 204 203 200 196 195 199 202 200 198 198 197 198 200 202 202 203 202 201 200 198 197 196 196 196 197 199 201 202 203 205 205 203 202 200 198 198 200 204 205 202 198 200 204 205 208 211 206 198 204 214 215 217 220 218 213 205 199 192 184 186 186 189 197 203 227 270 323 17
297 271 269 256 250 249 238 238 249 257 263 255 249 277 283 271 243 238 230 220 235 247 257 258 242 233 225 215 207 204 203 201 197 197 199 203 201 200 200 200 201 202 204 204 205 204 203 203 201 200 199 198 199 199 202 203 204 205 207 209 208 207 205 204 204 204 208 211 210 205 205 208 210 212 216 213 202 203 214 216 216 218 218 213 205 199 192 185 188 188 191 200 207 227 254 295 22
303 289 280 267 253 246 232 222 237 243 253 248 229 242 277 274 239 228 221 205 229 252 257 246 232 227 222 214 206 204 203 198 198 200 203 206 202 198 199 202 204 204 206 207 207 207 205 205 204 203 202 201 202 203 204 206 206 206 208 211 212 212 211 211 212 211 212 215 216 214 211 213 214 217 220 219 209 206 213 216 214 215 216 211 204 200 191 187 190 191 194 201 210 224 238 260 17
299 289 299 292 291 241 229 210 218 222 230 226 201 239 268 252 238 234 222 220 242 252 249 229 219 221 219 213 207 204 202 196 198 205 210 210 204 200 200 202 204 205 206 207 209 209 207 208 207 206 206 204 205 206 207 208 209 208 210 212 214 217 217 217 218 219 218 219 221 220 217 218 218 220 223 223 217 209 211 215 212 209 211 206 202 199 191 189 191 193 197 203 212 223 235 251 350
296 287 171 298 355 288 224 201 202 206 218 204 182 231 246 245 244 231 216 221 234 235 224 212 210 215 215 212 209 205 201 197 199 206 211 212 207 204 204 204 203 204 205 207 209 209 208 209 209 209 209 208 208 208 209 210 211 211 211 213 215 219 221 221 222 223 224 223 224 223 222 221 220 220 221 225 221 209 207 209 204 202 202 200 199 197 191 189 191 194 199 207 214 222 233 244 299
302 297 230 307 346 278 247 197 184 192 219 198 182 230 239 247 242 171 228 224 225 228 214 206 203 206 209 209 207 204 201 202 207 209 209 213 211 206 206 206 204 203 206 207 208 209 210 211 211 212 212 212 212 210 210 211 212 212 213 215 216 219 223 224 225 225 226 227 225 223 222 222 220 218 218 223 220 205 200 200 195 195 197 197 198 196 191 190 193 196 202 209 214 218 229 246 304
1 310 295 321 180 263 293 231 183 181 207 191 187 230 241 250 240 213 233 218 217 219 209 203 197 199 202 201 202 202 204 208 214 213 210 214 216 211 207 208 207 206 206 206 208 209 211 213 214 215 215 216 217 215 214 214 215 214 214 218 219 220 224 227 228 227 227 227 225 222 221 220 218 216 216 220 216 201 195 194 190 191 197 200 198 195 192 193 197 199 203 209 212 216 224 247 307
359 81 260 277 207 261 303 279 203 185 178 184 204 223 220 246 249 235 230 224 229 223 206 198 193 196 196 197 201 205 209 213 215 213 212 214 218 215 210 210 212 211 209 206 209 211 212 213 214 218 220 220 221 219 218 218 218 217 217 220 222 223 226 228 230 228 225 221 217 215 215 217 216 215 215 217 213 200 194 191 188 190 198 202 199 196 194 197 203 203 206 209 211 217 226 246 298
312 354 267 261 238 232 256 303 285 195 195 203 213 219 218 245 264 251 222 211 224 224 211 200 193 195 196 199 203 208 211 215 217 215 213 214 215 216 215 216 216 216 213 208 207 211 216 215 212 217 221 223 224 223 222 221 220 219 219 222 224 224 225 227 227 225 219 210 206 204 208 212 213 213 213 213 208 200 195 191 188 191 197 199 199 201 201 204 208 208 210 212 211 218 228 247 283
223 239 333 309 298 270 249 275 329 194 225 224 215 209 229 258 274 265 227 202 212 217 213 204 197 197 198 200 203 208 210 215 221 218 214 214 214 215 217 220 220 218 215 212 210 212 221 222 215 216 219 221 223 222 223 224 221 220 220 221 220 220 220 219 219 217 209 201 197 197 202 206 206 207 207 209 206 201 197 192 191 197 201 200 201 206 208 209 210 208 209 212 211 214 227 250 275
189 192 174 239 286 283 265 259 258 237 184 237 227 190 212 226 247 256 230 202 212 222 216 205 201 199 199 201 202 205 207 216 224 221 217 216 216 217 218 220 221 218 214 215 217 216 221 225 220 218 219 221 222 220 221 224 223 220 219 218 216 214 213 212 211 209 204 199 194 194 201 203 201 202 202 204 206 204 202 198 198 204 211 214 213 215 216 215 215 212 212 214 213 215 225 248 271
172 177 192 230 257 278 271 254 259 241 161 252 217 167 201 212 231 251 213 202 210 217 214 203 206 205 201 202 203 204 207 216 224 221 219 218 218 219 219 221 222 220 214 212 213 212 217 223 221 219 220 223 225 223 222 223 223 220 218 217 215 212 208 207 207 205 203 199 194 195 201 203 200 201 200 201 205 207 206 206 207 212 220 226 227 231 227 220 218 218 218 217 216 219 228 245 265
200 207 230 262 232 251 268 255 268 241 162 278 183 159 210 219 230 243 172 187 204 208 204 195 204 209 207 206 207 208 210 216 221 221 220 218 218 219 218 220 220 220 216 213 216 215 216 223 225 223 222 223 225 226 225 224 223 220 218 218 215 211 208 208 209 208 206 202 199 199 202 202 202 203 200 201 206 209 211 212 214 218 227 234 234 237 233 222 219 220 222 220 214 219 231 246 258
205 187 173 254 245 260 285 287 308 349 144 270 205 175 234 239 240 241 178 184 205 212 211 201 201 206 208 209 212 214 213 215 218 219 219 218 218 217 217 219 219 219 216 217 224 224 222 225 227 226 225 226 227 227 225 223 222 218 217 218 215 211 211 212 213 212 212 211 205 202 205 205 205 207 203 204 210 214 218 218 219 224 231 237 237 234 227 219 219 221 225 224 218 222 234 247 256
177 144 136 233 262 281 277 297 332 354 65 182 155 177 281 288 270 255 213 207 215 220 221 214 205 205 209 211 215 218 215 213 212 213 216 216 216 216 217 218 218 219 218 219 224 225 225 226 226 226 226 228 230 230 226 221 221 220 218 219 215 213 214 214 214 213 216 219 211 204 209 207 206 210 207 209 214 220 228 225 225 230 233 238 240 234 225 219 219 221 224 225 225 231 241 252 259
317 168 157 252 293 270 226 289 336 348 7 57 82 52 317 330 283 256 253 237 240 234 227 227 217 212 214 215 216 219 218 215 209 208 210 211 213 216 218 218 217 218 221 223 225 226 228 227 226 227 227 227 228 229 226 220 218 219 218 218 215 215 215 213 215 216 217 221 215 207 210 210 206 209 210 213 216 221 230 228 229 232 233 236 239 237 227 222 221 222 224 228 234 243 252 259 261
337 228 205 248 288 285 273 328 12 39 360 340 62 57 288 322 277 252 307 316 248 259 233 227 225 220 217 216 217 218 217 215 212 210 208 207 212 217 220 221 219 218 221 224 227 229 231 231 229 227 226 226 226 226 224 220 219 219 216 215 213 213 214 216 222 224 223 222 216 209 211 211 207 208 210 213 214 220 229 229 232 235 232 232 235 238 233 225 222 221 223 228 238 251 260 261 256
359 236 197 245 303 284 278 357 53 90 265 290 63 132 242 320 292 248 312 303 242 287 294 243 224 220 221 219 219 218 215 213 211 211 210 208 212 216 221 225 224 222 223 225 227 229 231 232 230 228 226 225 224 222 220 218 219 219 217 214 213 216 223 229 231 230 231 227 217 212 214 213 209 210 213 214 213 220 229 232 237 239 236 231 230 236 235 229 225 222 224 228 236 249 258 259 256
313 249 175 326 338 287 234 82 77 177 243 327 15 91 135 308 272 253 335 192 230 275 282 268 236 219 219 222 223 221 219 215 209 209 214 216 218 219 221 225 228 227 225 226 227 228 229 229 229 229 230 229 225 220 217 218 217 218 221 219 217 223 233 241 236 229 232 227 218 215 216 214 211 211 216 219 216 221 230 235 238 242 242 234 228 231 235 233 228 224 223 225 230 240 250 258 259
270 252 49 352 4 79 84 89 88 359 37 342 333 25 110 269 280 305 35 122 204 254 257 270 271 251 232 227 227 226 225 221 214 212 216 220 224 226 224 227 233 234 231 229 229 229 229 229 229 229 230 231 229 224 221 222 219 219 226 227 226 229 235 241 238 230 231 225 217 216 217 215 213 212 218 223 222 224 231 235 239 242 247 241 231 229 232 233 230 227 225 225 228 235 245 256 260
283 150 73 34 51 54 62 81 90 39 50 259 295 355 90 267 294 316 28 91 187 247 258 277 290 289 262 241 235 230 228 226 222 220 220 223 228 230 229 230 234 238 239 237 233 231 230 229 228 228 229 229 231 230 227 227 223 219 223 227 229 230 233 240 238 229 228 224 217 216 218 216 214 212 218 224 224 227 231 234 237 241 248 248 237 229 229 230 230 230 229 229 229 232 240 252 260
341 65 50 26 24 18 38 49 74 57 13 256 262 353 102 277 287 276 257 100 178 171 330 304 307 319 297 267 261 246 239 234 229 227 225 226 229 230 228 229 232 236 238 237 232 231 231 229 228 228 228 228 230 232 229 229 228 226 225 225 228 230 233 240 240 233 229 226 221 219 218 218 216 213 220 227 227 227 231 233 235 238 245 250 240 231 228 229 232 233 233 232 232 232 237 248 257
58 65 46 41 348 360 26 358 34 79 281 260 275 2 105 169 261 246 227 265 272 126 86 323 309 330 348 2 359 315 264 250 243 237 232 229 230 230 229 231 233 233 234 234 231 229 229 229 228 227 229 229 230 232 232 231 231 232 230 228 229 231 234 238 240 242 238 230 226 225 220 219 219 216 219 228 228 227 230 231 232 234 239 245 241 233 229 230 234 236 235 236 236 235 238 245 252
49 56 56 71 345 8 17 317 6 136 239 274 342 355 105 210 244 242 224 255 270 234 221 323 311 326 348 9 21 15 359 310 269 256 245 237 233 233 234 234 233 232 231 232 231 230 229 228 228 228 229 230 230 231 232 233 234 234 232 230 231 233 235 236 238 245 245 236 233 233 227 222 220 217 218 226 227 225 229 230 230 231 234 239 240 235 232 232 235 237 237 240 239 238 241 247 251
34 71 86 96 102 66 294 274 349 261 253 318 332 331 304 276 268 236 206 223 250 266 285 320 327 334 345 357 7 5 3 4 328 289 269 255 244 239 238 238 236 234 231 227 227 231 232 230 230 229 230 231 231 232 232 234 236 236 234 233 234 234 235 235 234 238 243 243 240 240 237 230 224 222 221 227 228 225 228 230 230 231 231 236 239 236 234 233 235 237 239 242 243 243 246 249 253
5 156 134 117 141 136 204 218 175 226 266 319 319 316 173 211 232 208 214 234 256 277 287 323 3 353 358 3 8 7 3 5 352 320 287 270 260 251 246 244 241 238 235 229 227 231 233 233 232 230 230 231 232 232 232 234 236 237 235 234 236 235 236 237 236 234 238 244 245 243 242 237 231 227 225 230 231 227 228 230 231 233 231 233 237 238 235 233 234 237 239 242 244 246 248 252 257
282 161 96 49 186 141 108 165 172 159 11 315 292 234 206 229 265 265 267 6 320 293 302 59 58 29 22 14 14 10 4 4 359 341 308 279 268 260 253 250 246 242 239 234 230 231 233 234 233 230 228 230 233 234 234 236 236 237 236 234 235 236 236 238 238 235 234 240 246 246 245 242 238 233 230 232 232 230 229 230 232 235 233 232 235 237 236 234 234 236 238 241 244 246 249 254 259
279 63 88 255 183 121 101 150 40 66 73 287 281 268 295 313 298 312 26 52 63 53 11 349 347 15 23 11 14 5 353 354 354 349 334 308 286 272 261 255 251 246 243 239 236 235 235 235 233 230 228 229 233 237 238 239 238 237 236 235 234 235 237 238 238 237 235 237 243 245 246 246 243 238 233 232 232 231 230 230 232 235 236 234 234 236 235 232 233 235 238 241 244 248 252 255 259
92 76 213 240 58 82 103 132 9 42 120 278 307 267 296 330 288 320 354 6 359 28 47 319 317 326 334 352 3 352 340 339 338 339 339 332 316 299 284 270 261 254 251 248 244 241 238 237 235 233 233 232 235 238 238 238 239 238 236 234 234 235 237 238 239 239 240 240 242 243 245 245 244 239 234 231 231 231 230 231 232 233 234 235 234 236 235 231 231 233 237 241 244 249 253 256 259
95 170 195 102 83 359 36 99 20 31 239 295 317 289 272 207 221 296 319 324 320 317 324 295 274 281 303 333 351 346 339 335 331 331 331 332 331 324 314 295 276 265 260 257 254 248 242 239 238 237 238 238 238 238 236 235 236 237 236 234 234 234 235 237 239 240 242 242 242 243 243 244 242 238 234 231 229 228 229 230 230 230 231 232 234 235 235 233 232 232 235 239 243 247 250 253 257
21 42 17 45 126 162 207 134 154 170 212 284 315 318 270 224 223 248 275 287 297 304 314 314 285 309 331 343 351 349 342 335 331 329 325 324 325 326 329 322 301 281 268 263 259 254 248 245 242 241 240 238 237 237 235 233 233 233 234 232 233 234 236 238 240 241 243 245 246 246 245 243 241 237 233 232 229 227 227 228 229 229 229 230 233 235 237 236 234 234 235 238 241 245 247 250 255
4 25 8 337 360 58 82 45 80 127 157 176 291 303 270 245 215 209 252 286 303 312 319 320 327 345 342 335 336 335 332 328 325 323 320 317 315 315 318 322 318 304 287 272 261 257 254 250 246 244 241 238 236 235 234 234 233 233 234 232 231 234 237 238 241 243 243 242 243 246 246 244 242 239 235 232 229 227 226 226 228 230 229 231 233 235 238 238 237 236 235 237 240 242 246 249 253
104 83 24 346 348 37 79 346 332 43 116 168 168 283 270 255 225 226 262 322 348 334 323 312 316 323 324 322 324 324 322 322 321 318 314 310 308 307 306 308 311 311 306 295 275 260 256 253 248 245 242 239 238 236 235 235 235 235 236 235 232 234 238 240 241 243 242 236 231 234 241 243 241 240 239 235 231 229 227 225 227 229 231 232 234 237 240 241 239 237 235 237 239 241 244 247 250